FREGAT R/B, 63131

Orbit data source: Space-Track

FREGAT R/B, 63131 is space debris in MEO originally from a launch on Sun, 02 Mar 2025 UTC launched from the Plesetsk Missile And Space Complex (PKMTR). Debris objects in space refer to the collection of defunct objects orbiting the Earth. Examples of debris include non-operational satellites, rocket bodies, and fragments generated from explosions, collisions, or faulty payload assembly.

Loading next visibility...
Identifier
63131, 2025-042B
Orbit
MEO
Last TLE update
2 days ago
Origin
Manufacturer
Lavochkin
Mission
Spacecraft
Bus & Motor
FREGAT, Unknown motor
Mass
1,000 kg wet, 1,000 kg dry
Launch date (UTC)
2025-03-02 (4 months ago)
Launch vehicle
Unknown
Launch site
Plesetsk Missile And Space Complex (PKMTR)
Object type
Payload
Rocket body
Debris
Shape & HBR
Cyl, 3.35 m
Radar Cross Section
8.354 m², Large (>1 m²)

Expand to show TLE details & history

TLE from 2 days ago
0 FREGAT R/B
1 63131U 25042B   25188.80168604 -.00000034  00000-0  00000-0 0  9992
2 63131  64.8873  84.5024 0016723 196.0449 163.9473  2.13753731  2701
Epoch: 2025-07-07T19:14Z
TLE epoch observation values (Epoch: 2025-07-07T19:14:25.673Z)
Latitude
0.00001°
Longitude
-130.09586°
Altitude
19,119.518 km
Speed
3.951 km/s
True Right ascension
05h 38m 04s
True Declination
0° 00' 00"
Sunlit
Object was in daylight at epoch
Visualization orbit readout
Latitude
63.08209°
Longitude
-17.16678°
Altitude
19,092.526 km
Speed
3.957 km/s
Apparent Right ascension
11h 49m 19s
Apparent Declination
53° 38' 10"
Sunlit
Object is in daylight
Visualization observer readout
Local Sidereal Time
20:12:56
Azimuth
330.264° NNW
Elevation
14.479°
Doppler factor
1
Orbital elements
Apogee altitude
19,120.2 km
Perigee altitude
19,035.06 km
Semi-major axis
25,455.767 km
Eccentricity
0.00167
Inclination
64.8873°
RAAN
84.5024°
Arg. of periapsis
196.0449°
True anomaly
Unknown
Mean anomaly
163.9473°
Eccentric anomaly
Unknown
Mean motion
0.5344 °/min
Orbital period
673.66 mins
BSTAR
0
Loading maneuver chart data...
Loading SW <> Apogee altitude chart data...
Loading historical data...
Loading historical data...
Loading historical data...
Loading historical data...
Loading historical data...
Loading historical data...
Loading historical data...
Other satellites on launch #42 in the year 2025 (2025-03-02 UTC)

FREGAT R/B Visibility forecast

Observer location: undefined°, undefined°

Span
Click to sort rows by Start time (UTC) header in descending order
Start Az.
Max El. time (UTC)
Max El. Az.
Max El.
End time (UTC)
End Az.
104 mins2025-07-09 08:03:21.036Z330.25° NNW2025-07-09 08:46:21.036Z309.177° NW18.746°2025-07-09 09:47:21.036Z278.617° WNW
264 mins2025-07-09 15:22:21.036Z159.575° S2025-07-09 17:30:21.036Z88.716° E42.947°2025-07-09 19:46:21.036Z38.241° NE
127 mins2025-07-10 05:56:21.036Z334.094° NNW2025-07-10 07:29:21.036Z293.052° NW30.674°2025-07-10 08:03:21.036Z270.94° WNW
|